[[{"header":{"parameterUnit":"m.s-1","parameterCategory":1,"la1":30.2991,"la2":30.254,"lo1":-89.0895,"lo2":-89.0444,"dy":0.0017,"dx":0.0017,"nx":28,"ny":28,"refTime":"2025-02-26T03:00:00:Z","depth":0,"parameterNumber":2,"parameterNumberName":"U-component_of_WINDS"},"data":[0,0,0,0,0,0,0,0,0,0,0,0,0,0,0,0,0,0,0,0,0,0,0,0,0,0,0,0,0,0,0,0,0,0,0,0,0,0,0,0,0,0,0,0,0,0,0,0,0,0,0,0,0,0,0,0,0,0,0.8531,0.8532,0,0.8545,0.8546,0.8546,0.8543,0.8543,0.8542,0.8542,0.8557,0.8558,0.8558,0,0,0,0,0,0,0,0,0,0,0,0,0,0.8504,0.8504,0.8531,0.8532,0.8532,0.8545,0.8546,0.8546,0.8543,0.8543,0.8542,0.8542,0.8557,0.8558,0.8558,0,0,0,0,0,0,0,0,0,0,0,0,0,0.8516,0.8504,0.8531,0.8532,0.8532,0.8545,0.8546,0.8546,0.8543,0.8543,0.8542,0.8542,0.8557,0.8557,0.8558,0.8572,0,0,0.8561,0.8562,0,0,0,0,0,0,0,0,0.8516,0.8517,0.8532,0.8532,0.8532,0.8542,0.8541,0.8555,0.8543,0.8539,0.8542,0.8542,0.8552,0.8554,0.8557,0.8573,0.8573,0.8561,0.8562,0.8562,0.8563,0,0,0,0,0,0,0,0.8515,0.8517,0.8537,0.8532,0.8532,0.8532,0.8533,0.8544,0.8548,0.8539,0.8539,0.8541,0.8552,0.8556,0.8557,0.8573,0.8561,0.8562,0.8563,0.8563,0.8602,0.8602,0,0,0,0,0,0,0.8514,0.8516,0.8536,0.8537,0.8523,0.8533,0.8534,0.8539,0.8548,0.8548,0.8541,0.8541,0.8555,0.8556,0.8558,0.8575,0.8562,0.8563,0.8564,0.8601,0.8602,0.8602,0,0,0,0,0,0,0.8513,0.8515,0.8536,0.8527,0.8529,0.8534,0.8539,0.854,0.8543,0.8549,0.855,0.8544,0.8555,0.8557,0.8569,0.8575,0.8564,0.8565,0.8601,0.8601,0.8602,0.8608,0,0,0,0,0,0,0.8512,0.8515,0.852,0.8527,0.853,0.8546,0.854,0.854,0.8545,0.8545,0.8552,0.8553,0.8554,0.8567,0.857,0.8576,0.8565,0.86,0.8601,0.8602,0.8607,0.8609,0.861,0,0,0,0,0,0.8511,0.8521,0.852,0.8523,0.8536,0.8546,0.8548,0.855,0.8546,0.8551,0.8554,0.8553,0.8574,0.8568,0.8571,0.8578,0.86,0.8601,0.8602,0.8607,0.8608,0.861,0,0,0,0,0,0,0.8515,0.8522,0.8521,0.8533,0.8539,0.8546,0.8552,0.8551,0.8559,0.8558,0.856,0.8561,0.8574,0.8577,0.8571,0.8592,0.8586,0.8588,0.8589,0.8591,0.8593,0.8591,0.8566,0,0,0,0,0,0.8517,0.8525,0.8531,0.8541,0.8544,0.8548,0.8552,0.8553,0.8559,0.8562,0.8566,0.8573,0.8581,0.8586,0.8594,0.8608,0.861,0.8614,0.8616,0.8617,0.8618,0.8626,0.8628,0.8605,0.8605,0.8605,0,0,0.8522,0.8527,0.8531,0.8542,0.8547,0.8555,0.855,0.8559,0.8565,0.8563,0.8575,0.8578,0.8586,0.8599,0.8605,0.8602,0.8625,0.8618,0.8619,0.862,0.8628,0.863,0.8632,0.8606,0.8606,0.8606,0,0,0.8535,0.8539,0.8548,0.8553,0.856,0.8563,0.8565,0.8572,0.8574,0.8586,0.8585,0.8593,0.8607,0.8612,0.8617,0.8633,0.8632,0.8635,0.8643,0.8651,0.8653,0.8654,0.8661,0.8663,0.8637,0.8637,0.8637,0,0.854,0.8552,0.8553,0.8562,0.8567,0.8566,0.8576,0.8581,0.859,0.8594,0.8591,0.8609,0.8614,0.8628,0.8632,0.8636,0.8639,0.8634,0.8652,0.8654,0.8656,0.8661,0.8664,0.8637,0.8637,0.8637,0.8637,0,0.8558,0.8566,0.8573,0.8582,0.8588,0.8598,0.8601,0.8607,0.8607,0.861,0.8623,0.8628,0.8638,0.8641,0.8642,0.8656,0.8655,0.8652,0.8646,0.8658,0.8664,0.8666,0.8638,0.8638,0.8638,0.8637,0,0,0.8573,0.8583,0.8586,0.859,0.8598,0.8605,0.8615,0.8624,0.8629,0.8636,0.8645,0.8657,0.8655,0.866,0.8661,0.8668,0.8681,0.8665,0.8665,0.8668,0.8698,0.87,0.8703,0.8681,0.8681,0.8681,0.8698,0,0.8586,0.8603,0.8605,0.8621,0.8629,0.8629,0.8637,0.8643,0.8647,0.8655,0.8659,0.8667,0.8664,0.8667,0.8674,0.8678,0.8687,0.8677,0.8689,0.8689,0.8687,0.8705,0.8707,0.8722,0.87,0.87,0.87,0,0.8604,0.8612,0.8628,0.8636,0.8639,0.8647,0.8656,0.8663,0.8671,0.8673,0.8679,0.868,0.869,0.8685,0.87,0.8693,0.8698,0.8701,0.8701,0.8702,0.8695,0.8707,0.8727,0.8729,0.8704,0.8704,0.8703,0,0.8614,0.8628,0.864,0.8643,0.8653,0.8658,0.8663,0.867,0.8675,0.8683,0.8687,0.8696,0.8701,0.8709,0.8712,0.8707,0.8727,0.8721,0.8729,0.8729,0.8733,0.8733,0.8754,0.8737,0.8737,0.8737,0.8736,0,0.8629,0.8639,0.8644,0.8651,0.8663,0.8665,0.8677,0.8681,0.8687,0.8696,0.8696,0.8704,0.8708,0.8716,0.8719,0.8731,0.8734,0.8736,0.8736,0.8736,0.8735,0.8739,0.8738,0.8737,0.8737,0.8737,0.8737,0,0.8641,0.8645,0.8658,0.8666,0.8668,0.8676,0.8683,0.8691,0.8694,0.8705,0.8708,0.8713,0.8724,0.8728,0.874,0.8742,0.8756,0.8756,0.8754,0.8754,0.8762,0.8761,0.8786,0.879,0.877,0.877,0.877,0,0.865,0.8658,0.8667,0.8673,0.8677,0.8686,0.8692,0.8695,0.8702,0.8711,0.8717,0.8728,0.8736,0.8753,0.8758,0.8768,0.8768,0.8776,0.8769,0.8769,0.8768,0.8768,0.8769,0.8777,0.8777,0.8778,0.8778,0,0.8666,0.8668,0.8677,0.8686,0.8693,0.87,0.8708,0.8712,0.8717,0.8724,0.8735,0.8741,0.8754,0.8765,0.8775,0.878,0.878,0.878,0.8782,0.8782,0.878,0.8781,0.8757,0.8779,0.8779,0.8779,0.8779,0.8779,0.8678,0.8685,0.8692,0.8702,0.8708,0.8715,0.8722,0.8727,0.8736,0.8747,0.8748,0.876,0.8768,0.8782,0.8787,0.8796,0.8794,0.8798,0.8798,0.8799,0.88,0.8779,0.8798,0.8798,0.8798,0.8798,0.8798,0,0.8694,0.8699,0.8708,0.8718,0.8726,0.8725,0.8734,0.874,0.875,0.8758,0.8766,0.8779,0.8789,0.8796,0.8806,0.8812,0.8813,0.8815,0.8814,0.8816,0.8801,0.8798,0.8815,0.8815,0.8815,0.8815,0.8815,0.8815,0.8703,0.8715,0.8718,0.8733,0.8738,0.875,0.8754,0.8761,0.8767,0.8781,0.879,0.8794,0.8802,0.8813,0.8823,0.8824,0.8828,0.8831,0.8832,0.8818,0.8817,0.8815,0.8812,0.8831,0.8832,0.8846,0.8846,0.8846]},{"header":{"parameterUnit":"m.s-1","parameterCategory":1,"la1":30.2991,"la2":30.254,"lo1":-89.0895,"lo2":-89.0444,"dy":0.0017,"dx":0.0017,"nx":28,"ny":28,"refTime":"2025-02-26T03:00:00:Z","depth":0,"parameterNumber":3,"parameterNumberName":"V-component_of_WINDS"},"data":[0,0,0,0,0,0,0,0,0,0,0,0,0,0,0,0,0,0,0,0,0,0,0,0,0,0,0,0,0,0,0,0,0,0,0,0,0,0,0,0,0,0,0,0,0,0,0,0,0,0,0,0,0,0,0,0,0,0,-3.1673,-3.1674,0,-3.1732,-3.1732,-3.1733,-3.1714,-3.1713,-3.1711,-3.171,-3.1769,-3.1772,-3.1774,0,0,0,0,0,0,0,0,0,0,0,0,0,-3.1546,-3.1549,-3.1673,-3.1674,-3.1675,-3.1732,-3.1732,-3.1733,-3.1714,-3.1713,-3.1711,-3.171,-3.1768,-3.1771,-3.1775,0,0,0,0,0,0,0,0,0,0,0,0,0,-3.1603,-3.1549,-3.1673,-3.1672,-3.1673,-3.1731,-3.1732,-3.1733,-3.1715,-3.1713,-3.1711,-3.1709,-3.1767,-3.1771,-3.1775,-3.1838,0,0,-3.1787,-3.1789,0,0,0,0,0,0,0,0,-3.1599,-3.1607,-3.1672,-3.1672,-3.1673,-3.1714,-3.1709,-3.1768,-3.1715,-3.1699,-3.171,-3.1708,-3.1752,-3.1757,-3.1772,-3.1841,-3.1843,-3.1788,-3.179,-3.1792,-3.1793,0,0,0,0,0,0,0,-3.1596,-3.1605,-3.1696,-3.1673,-3.1674,-3.1669,-3.1675,-3.172,-3.1735,-3.17,-3.1699,-3.1706,-3.1752,-3.1768,-3.1773,-3.1844,-3.1788,-3.1791,-3.1794,-3.1795,-3.1969,-3.1971,0,0,0,0,0,0,-3.1591,-3.1602,-3.1695,-3.1698,-3.1631,-3.1673,-3.1679,-3.1703,-3.1735,-3.1738,-3.1707,-3.1705,-3.1762,-3.1769,-3.1775,-3.1852,-3.1792,-3.1796,-3.1798,-3.1966,-3.1969,-3.1971,0,0,0,0,0,0,-3.1589,-3.16,-3.1692,-3.165,-3.1661,-3.1677,-3.1703,-3.1705,-3.1721,-3.174,-3.1743,-3.1721,-3.1761,-3.177,-3.1823,-3.1854,-3.1798,-3.1801,-3.1964,-3.1967,-3.197,-3.2006,0,0,0,0,0,0,-3.1585,-3.1599,-3.1623,-3.165,-3.1663,-3.1739,-3.1705,-3.1707,-3.1728,-3.1725,-3.1754,-3.1757,-3.176,-3.1817,-3.1827,-3.1859,-3.1805,-3.1961,-3.1965,-3.1969,-3.2002,-3.201,-3.2017,0,0,0,0,0,-3.1581,-3.163,-3.1624,-3.1635,-3.1694,-3.1741,-3.1748,-3.1751,-3.1731,-3.1755,-3.1768,-3.1756,-3.1849,-3.1823,-3.1834,-3.1867,-3.1959,-3.1964,-3.1969,-3.1999,-3.2009,-3.2017,0,0,0,0,0,0,-3.1605,-3.1633,-3.1627,-3.1687,-3.1712,-3.1737,-3.1768,-3.1761,-3.1792,-3.1788,-3.179,-3.1796,-3.1852,-3.1864,-3.1835,-3.1931,-3.1901,-3.1908,-3.192,-3.193,-3.1937,-3.1933,-3.1808,0,0,0,0,0,-3.1618,-3.1653,-3.1676,-3.1727,-3.174,-3.1752,-3.1772,-3.1773,-3.1798,-3.1808,-3.1825,-3.185,-3.1885,-3.1908,-3.1941,-3.2004,-3.2011,-3.2033,-3.204,-3.2046,-3.2052,-3.2088,-3.2099,-3.1987,-3.1987,-3.1987,0,0,-3.1643,-3.1663,-3.1686,-3.1732,-3.1751,-3.1789,-3.1761,-3.1801,-3.1829,-3.1814,-3.1866,-3.1879,-3.1907,-3.1966,-3.1993,-3.1979,-3.2085,-3.2052,-3.2057,-3.206,-3.2094,-3.2105,-3.2114,-3.199,-3.199,-3.1989,0,0,-3.171,-3.1728,-3.1773,-3.1794,-3.1823,-3.1831,-3.1842,-3.1869,-3.1878,-3.193,-3.192,-3.1953,-3.2013,-3.2034,-3.2052,-3.2129,-3.212,-3.2139,-3.2178,-3.2213,-3.2222,-3.223,-3.2258,-3.2268,-3.2146,-3.2146,-3.2146,0,-3.1739,-3.1795,-3.1797,-3.1839,-3.1861,-3.185,-3.1896,-3.1915,-3.1954,-3.1969,-3.1952,-3.2029,-3.2046,-3.2111,-3.213,-3.2145,-3.2158,-3.2136,-3.2221,-3.2228,-3.2236,-3.2263,-3.2274,-3.2148,-3.2148,-3.2148,-3.2147,0,-3.1829,-3.1868,-3.1901,-3.194,-3.1965,-3.2008,-3.2018,-3.2043,-3.2041,-3.2051,-3.2105,-3.2127,-3.2165,-3.218,-3.2178,-3.2245,-3.2235,-3.222,-3.219,-3.2249,-3.2274,-3.2285,-3.2151,-3.2151,-3.215,-3.2149,0,0,-3.1912,-3.1953,-3.1965,-3.1983,-3.2016,-3.2046,-3.209,-3.2128,-3.215,-3.2177,-3.2214,-3.2266,-3.2252,-3.2273,-3.2274,-3.2305,-3.2366,-3.2286,-3.2286,-3.2301,-3.2442,-3.2454,-3.2466,-3.236,-3.2362,-3.2363,-3.244,0,-3.1983,-3.206,-3.2064,-3.2134,-3.2171,-3.2162,-3.22,-3.2225,-3.2235,-3.2268,-3.228,-3.2317,-3.2296,-3.2309,-3.2338,-3.2352,-3.2394,-3.2346,-3.2395,-3.2397,-3.2389,-3.2479,-3.2492,-3.2563,-3.245,-3.2451,-3.2453,0,-3.2075,-3.2106,-3.218,-3.2209,-3.2225,-3.2259,-3.2295,-3.2327,-3.2354,-3.236,-3.2385,-3.2381,-3.2427,-3.2395,-3.2458,-3.2426,-3.2446,-3.2456,-3.2459,-3.2464,-3.2429,-3.2488,-3.2586,-3.2597,-3.2468,-3.2467,-3.2466,0,-3.213,-3.219,-3.2243,-3.2259,-3.2293,-3.2318,-3.2333,-3.2359,-3.2382,-3.2414,-3.2429,-3.2465,-3.2485,-3.2513,-3.252,-3.2496,-3.2583,-3.2552,-3.259,-3.259,-3.2609,-3.2608,-3.2713,-3.262,-3.262,-3.262,-3.262,0,-3.2208,-3.2254,-3.2268,-3.2301,-3.2353,-3.2357,-3.2408,-3.2422,-3.2446,-3.2481,-3.2475,-3.2508,-3.2515,-3.255,-3.2555,-3.2607,-3.2616,-3.2622,-3.2624,-3.2624,-3.2623,-3.2637,-3.2633,-3.2623,-3.2622,-3.2622,-3.2621,0,-3.2278,-3.229,-3.2347,-3.2375,-3.2384,-3.2421,-3.2445,-3.2477,-3.2487,-3.2532,-3.2543,-3.2559,-3.26,-3.261,-3.2658,-3.2662,-3.2724,-3.272,-3.2715,-3.2715,-3.2753,-3.275,-3.2871,-3.2888,-3.2784,-3.2785,-3.2785,0,-3.2328,-3.2364,-3.2396,-3.242,-3.2437,-3.2475,-3.2499,-3.2505,-3.253,-3.2566,-3.2593,-3.2633,-3.2666,-3.2732,-3.2748,-3.2786,-3.2783,-3.2823,-3.2788,-3.2788,-3.2785,-3.2783,-3.2788,-3.283,-3.2831,-3.2832,-3.2832,0,-3.2416,-3.242,-3.2455,-3.2492,-3.2521,-3.2551,-3.2579,-3.2599,-3.2609,-3.2638,-3.268,-3.2706,-3.2756,-3.2796,-3.2834,-3.285,-3.2844,-3.2843,-3.2854,-3.2855,-3.2852,-3.2856,-3.2734,-3.2841,-3.284,-3.2839,-3.2839,-3.2838,-3.2478,-3.251,-3.2538,-3.2578,-3.26,-3.2627,-3.2659,-3.2674,-3.2709,-3.2751,-3.2753,-3.2799,-3.2827,-3.2878,-3.2896,-3.2933,-3.292,-3.2936,-3.294,-3.2944,-3.2948,-3.2845,-3.2939,-3.2939,-3.2939,-3.2939,-3.2939,0,-3.2567,-3.2585,-3.2621,-3.2662,-3.2693,-3.2685,-3.2716,-3.2743,-3.2784,-3.2811,-3.2844,-3.2893,-3.2933,-3.2953,-3.2992,-3.3018,-3.3016,-3.3028,-3.3027,-3.3031,-3.2956,-3.2943,-3.3029,-3.3029,-3.3029,-3.3029,-3.3029,-3.3029,-3.2616,-3.267,-3.2678,-3.2743,-3.2761,-3.2807,-3.2826,-3.2851,-3.2873,-3.2929,-3.2962,-3.2975,-3.3,-3.3041,-3.3078,-3.3083,-3.3098,-3.3112,-3.3116,-3.3045,-3.3036,-3.3027,-3.3015,-3.3115,-3.3115,-3.3188,-3.3188,-3.3189]}]]